W4SNA-3 Weather Reports


Display with metric or nautical units.
time (UTC)temp
F
wind
direction
speed
MPH
gust
MPH
rain 1hr
in
rain 24hr
in
rain mn
in
humidity
%
barometer
mb
20260509162337 65 0 0.0 3.0 0.00 0.00 0.00 68 1010.4
20260509161838 65 0 0.0 4.0 0.00 0.00 0.00 69 1010.3
20260509161338 66 0 0.0 4.0 0.00 0.00 0.00 65 1010.4
20260509160837 66 0 0.0 3.0 0.00 0.00 0.00 69 1010.5
20260509160338 66 0 0.0 3.0 0.00 0.00 0.00 66 1010.4
20260509155844 65 0 0.0 3.0 0.00 0.00 0.00 70 1010.5
20260509155338 65 0 0.0 3.0 0.00 0.00 0.00 72 1010.4
20260509154837 64 0 0.0 3.0 0.00 0.00 0.00 67 1010.3
20260509154340 64 0 0.0 5.0 0.00 0.00 0.00 69 1010.4
20260509153837 64 0 0.0 5.0 0.00 0.00 0.00 71 1010.5
20260509153307 63 0 0.0 4.0 0.00 0.00 0.00 70 1010.4
20260509152812 63 0 0.0 4.0 0.00 0.00 0.00 70 1010.3
20260509152308 63 0 0.0 3.0 0.00 0.00 0.00 71 1010.2
20260509151810 63 0 0.0 4.0 0.00 0.00 0.00 68 1010.3
20260509151309 64 0 0.0 5.0 0.00 0.00 0.00 70 1010.4
20260509150807 63 250 1.0 5.0 0.00 0.00 0.00 68 1010.3
20260509150318 63 0 0.0 2.0 0.00 0.00 0.00 71 1010.4
20260509145807 63 0 0.0 3.0 0.00 0.00 0.00 69 1010.4
20260509145309 63 0 0.0 4.0 0.00 0.00 0.00 68 1010.4
20260509144808 64 0 0.0 6.0 0.00 0.00 0.00 67 1010.3
20260509144309 64 0 0.0 6.0 0.00 0.00 0.00 68 1010.2
20260509143807 64 0 0.0 3.0 0.00 0.00 0.00 68 1010.3
20260509143018 63 226 1.0 4.0 0.00 0.00 0.00 70 1010.3
20260509142519 62 0 0.0 3.0 0.00 0.00 0.00 70 1010.2
20260509142018 61 0 0.0 2.0 0.00 0.00 0.00 72 1010.1
20260509141518 60 0 0.0 3.0 0.00 0.00 0.00 76 1010.0
20260509141018 59 0 0.0 3.0 0.00 0.00 0.00 75 1010.1
20260509140518 58 0 0.0 1.0 0.00 0.00 0.00 76 1010.3
20260509140018 58 0 0.0 1.0 0.00 0.00 0.00 75 1010.4
20260509135518 57 0 0.0 0.0 0.00 0.00 0.00 80 1010.3
20260509135018 56 0 0.0 2.0 0.00 0.00 0.00 78 1010.4
20260509134518 56 0 0.0 2.0 0.00 0.00 0.00 80 1010.2
20260509134018 55 0 0.0 1.0 0.00 0.00 0.00 82 1010.3
20260509133518 54 0 0.0 1.0 0.00 0.00 0.00 80 1010.8
20260509133018 55 0 0.0 0.0 0.00 0.00 0.00 79 1010.8
20260509132518 55 0 0.0 1.0 0.00 0.00 0.00 78 1010.7
20260509132022 55 0 0.0 2.0 0.00 0.00 0.00 77 1010.7
20260509131521 56 0 0.0 3.0 0.00 0.00 0.00 75 1010.6
20260509131018 57 0 0.0 3.0 0.00 0.00 0.00 76 1010.8
20260509130043 56 0 0.0 2.0 0.00 0.00 0.00 79 1010.9
20260509125544 55 0 0.0 2.0 0.00 0.00 0.00 78 1011.3
20260509125053 55 0 0.0 1.0 0.00 0.00 0.00 79 1011.3
20260509124543 54 0 0.0 0.0 0.00 0.00 0.00 80 1011.5
20260509124045 54 0 0.0 2.0 0.00 0.00 0.00 82 1011.5
20260509123546 54 0 0.0 2.0 0.00 0.00 0.00 81 1011.5
20260509123043 53 0 0.0 1.0 0.00 0.00 0.00 83 1011.5
20260509122545 52 0 0.0 1.0 0.00 0.00 0.00 85 1011.6
20260509122046 52 0 0.0 1.0 0.00 0.00 0.00 86 1011.5
20260509121545 51 0 0.0 2.0 0.00 0.00 0.00 87 1011.5
20260509121048 51 0 0.0 3.0 0.00 0.00 0.00 87 1011.5
20260509120543 50 0 0.0 3.0 0.00 0.00 0.00 87 1011.6
20260509120043 50 0 0.0 0.0 0.00 0.00 0.00 87 1011.4
20260509115543 50 0 0.0 0.0 0.00 0.00 0.00 87 1011.4
20260509115043 50 0 0.0 0.0 0.00 0.00 0.00 87 1011.5
20260509114238 49 0 0.0 0.0 0.00 0.00 0.00 86 1011.3
20260509113737 49 0 0.0 0.0 0.00 0.00 0.00 87 1011.1
20260509113237 49 0 0.0 0.0 0.00 0.00 0.00 88 1011.1
20260509112737 49 0 0.0 0.0 0.00 0.00 0.00 88 1011.1
20260509112237 49 0 0.0 0.0 0.00 0.00 0.00 89 1011.1
20260509111737 48 0 0.0 0.0 0.00 0.00 0.00 89 1011.1
20260509111238 48 0 0.0 0.0 0.00 0.00 0.00 89 1011.0
20260509110656 48 0 0.0 0.0 0.00 0.00 0.00 89 1011.0
20260509110157 48 0 0.0 1.0 0.00 0.00 0.00 89 1011.1
20260509105656 48 0 0.0 1.0 0.00 0.00 0.00 89 1011.2
20260509105201 48 0 0.0 0.0 0.00 0.00 0.00 89 1011.1
20260509104658 48 0 0.0 2.0 0.00 0.00 0.00 89 1011.0
20260509104157 47 0 0.0 2.0 0.00 0.00 0.00 89 1010.9
20260509103656 47 0 0.0 1.0 0.00 0.00 0.00 89 1010.9
20260509103157 47 0 0.0 1.0 0.00 0.00 0.00 89 1010.8
20260509102658 47 0 0.0 1.0 0.00 0.00 0.00 89 1010.6
20260509102202 47 0 0.0 1.0 0.00 0.00 0.00 89 1010.4
20260509101656 47 0 0.0 1.0 0.00 0.00 0.00 88 1010.3
20260509101202 47 0 0.0 1.0 0.00 0.00 0.00 88 1010.3
20260509100659 48 0 0.0 2.0 0.00 0.00 0.00 88 1010.4
20260509100201 48 0 0.0 2.0 0.00 0.00 0.00 88 1010.2
20260509095656 48 0 0.0 2.0 0.00 0.00 0.00 88 1010.2
20260509095156 48 0 0.0 2.0 0.00 0.00 0.00 88 1010.2
20260509094657 48 0 0.0 1.0 0.00 0.00 0.00 88 1010.4
20260509094212 48 0 0.0 4.0 0.00 0.00 0.00 88 1009.6
20260509093656 48 0 0.0 4.0 0.00 0.00 0.00 88 1009.6
20260509093158 48 0 0.0 3.0 0.00 0.00 0.00 88 1009.6
20260509092656 48 0 0.0 3.0 0.00 0.00 0.00 88 1009.7
20260509092156 48 0 0.0 3.0 0.00 0.00 0.00 88 1009.6
20260509091658 48 0 0.0 3.0 0.00 0.00 0.00 88 1009.7
20260509091156 48 0 0.0 3.0 0.00 0.00 0.00 89 1009.7
20260509090709 48 0 0.0 5.0 0.00 0.00 0.00 89 1009.8
20260509090201 47 0 0.0 5.0 0.00 0.00 0.00 89 1009.8
20260509085656 47 0 0.0 1.0 0.00 0.00 0.00 89 1009.9
20260509085156 47 0 0.0 1.0 0.00 0.00 0.00 89 1009.9
20260509084658 47 0 0.0 1.0 0.00 0.00 0.00 89 1010.0
20260509084156 47 0 0.0 1.0 0.00 0.00 0.00 88 1010.0
20260509083656 47 0 0.0 1.0 0.00 0.00 0.00 88 1010.0
20260509083202 47 0 0.0 1.0 0.00 0.00 0.00 88 1010.2
20260509082656 47 0 0.0 3.0 0.00 0.00 0.00 88 1010.2
20260509082156 47 0 0.0 3.0 0.00 0.00 0.00 88 1010.2
20260509081240 47 0 0.0 2.0 0.00 0.00 0.00 87 1010.3
20260509080450 47 0 0.0 1.0 0.00 0.00 0.00 87 1010.3
20260509075929 47 0 0.0 0.0 0.00 0.00 0.00 86 1010.3
20260509075429 47 0 0.0 0.0 0.00 0.00 0.00 86 1010.3
20260509074929 47 0 0.0 0.0 0.00 0.00 0.00 85 1010.5
20260509074427 47 0 0.0 1.0 0.00 0.00 0.00 83 1010.4
20260509073927 47 0 0.0 1.0 0.00 0.00 0.00 81 1010.5
20260509073427 47 0 0.0 0.0 0.00 0.00 0.00 81 1010.5
20260509072941 48 0 0.0 1.0 0.00 0.00 0.00 82 1010.6
20260509072427 48 0 0.0 1.0 0.00 0.00 0.00 83 1010.6
20260509071927 48 0 0.0 1.0 0.00 0.00 0.00 83 1010.6
20260509071427 48 0 0.0 0.0 0.00 0.00 0.00 82 1010.6
20260509070929 48 0 0.0 1.0 0.00 0.00 0.00 82 1010.7
20260509070512 49 0 0.0 1.0 0.00 0.00 0.00 82 1010.8
20260509065646 49 0 0.0 2.0 0.00 0.00 0.00 82 1010.8
20260509065204 49 0 0.0 3.0 0.00 0.00 0.00 82 1010.9
20260509064641 49 0 0.0 4.0 0.00 0.00 0.00 82 1010.9
20260509064141 49 0 0.0 4.0 0.00 0.00 0.00 82 1010.9
20260509063705 49 0 0.0 3.0 0.00 0.00 0.00 82 1010.9
20260509063200 49 0 0.0 3.0 0.00 0.00 0.00 82 1010.9
20260509062641 49 0 0.0 4.0 0.00 0.00 0.00 82 1011.1
20260509062141 49 0 0.0 4.0 0.00 0.00 0.00 82 1011.1
20260509061641 48 0 0.0 2.0 0.00 0.00 0.00 82 1011.3
20260509061141 48 0 0.0 2.0 0.00 0.00 0.00 82 1011.3
20260509060641 48 0 0.0 2.0 0.00 0.00 0.00 81 1011.4
20260509060141 48 0 0.0 2.0 0.00 0.00 0.00 80 1011.5
20260509055643 49 0 0.0 1.0 0.00 0.00 0.00 80 1011.6
20260509055141 49 0 0.0 1.0 0.00 0.00 0.00 79 1011.6
20260509054642 49 0 0.0 1.0 0.00 0.00 0.00 78 1011.6
20260509054141 49 0 0.0 1.0 0.00 0.00 0.00 78 1011.7
20260509053641 49 0 0.0 1.0 0.00 0.00 0.00 78 1011.7
20260509053143 49 0 0.0 1.0 0.00 0.00 0.00 77 1011.8
20260509052642 49 0 0.0 1.0 0.00 0.00 0.00 77 1012.0
20260509052141 50 0 0.0 1.0 0.00 0.00 0.00 77 1011.9
20260509051649 50 0 0.0 3.0 0.00 0.00 0.00 77 1011.9
20260509051141 50 0 0.0 3.0 0.00 0.00 0.00 77 1011.9
20260509050548 50 0 0.0 1.0 0.00 0.00 0.00 76 1011.9
20260509050048 50 0 0.0 1.0 0.00 0.00 0.00 75 1012.0
20260509045552 50 0 0.0 0.0 0.00 0.00 0.00 73 1012.0
20260509045048 50 0 0.0 1.0 0.00 0.00 0.00 73 1012.1
20260509044548 50 0 0.0 1.0 0.00 0.00 0.00 73 1012.1
20260509044049 50 0 0.0 0.0 0.00 0.00 0.00 74 1012.1
20260509043548 50 0 0.0 0.0 0.00 0.00 0.00 73 1012.2
20260509043048 50 0 0.0 1.0 0.00 0.00 0.00 73 1012.2
20260509042548 50 0 0.0 1.0 0.00 0.00 0.00 72 1012.3
20260509042056 50 0 0.0 1.0 0.00 0.00 0.00 72 1012.3
20260509041555 50 0 0.0 0.0 0.00 0.00 0.00 71 1012.4
20260509041055 50 0 0.0 1.0 0.00 0.00 0.00 70 1012.5
20260509040548 50 0 0.0 1.0 0.00 0.00 0.00 70 1012.5
20260509040048 50 0 0.0 0.0 0.00 0.00 0.00 69 1012.6
20260509035548 50 0 0.0 0.0 0.00 0.00 0.00 69 1012.7
20260509035049 50 0 0.0 0.0 0.00 0.00 0.00 68 1012.7
20260509034548 50 0 0.0 1.0 0.00 0.00 0.00 68 1012.8
20260509034048 50 0 0.0 1.0 0.00 0.00 0.00 67 1012.8
20260509033548 50 0 0.0 0.0 0.00 0.00 0.00 66 1012.9
20260509033048 50 0 0.0 0.0 0.00 0.00 0.00 66 1012.8
20260509032548 51 0 0.0 1.0 0.00 0.00 0.00 66 1013.0
20260509032048 51 0 0.0 1.0 0.00 0.00 0.00 65 1012.9
20260509031548 51 0 0.0 1.0 0.00 0.00 0.00 64 1012.9
20260509031048 51 0 0.0 1.0 0.00 0.00 0.00 64 1012.9
20260509030548 51 0 0.0 1.0 0.00 0.00 0.00 64 1013.1
20260509030049 51 0 0.0 1.0 0.00 0.00 0.00 64 1013.1
20260509025126 51 0 0.0 1.0 0.00 0.00 0.00 64 1013.2
20260509024626 51 0 0.0 1.0 0.00 0.00 0.00 63 1013.1
20260509024147 51 0 0.0 2.0 0.00 0.00 0.00 63 1013.1
20260509023626 51 0 0.0 2.0 0.00 0.00 0.00 62 1013.3
20260509023126 51 0 0.0 1.0 0.00 0.00 0.00 62 1013.2
20260509022627 51 0 0.0 1.0 0.00 0.00 0.00 63 1013.2
20260509022126 51 0 0.0 1.0 0.00 0.00 0.00 61 1013.2
20260509021643 52 0 0.0 1.0 0.00 0.00 0.00 61 1013.2
20260509021126 52 0 0.0 1.0 0.00 0.00 0.00 60 1013.3
20260509020626 52 0 0.0 1.0 0.00 0.00 0.00 60 1013.2
20260509020126 52 0 0.0 2.0 0.00 0.00 0.00 61 1013.3
20260509015644 52 0 0.0 2.0 0.00 0.00 0.00 60 1013.4
20260509015126 51 0 0.0 1.0 0.00 0.00 0.00 58 1013.4
20260509014626 51 0 0.0 3.0 0.00 0.00 0.00 58 1013.2
20260509014126 51 0 0.0 3.0 0.00 0.00 0.00 57 1013.2
20260509013626 51 0 0.0 2.0 0.00 0.00 0.00 57 1013.2
20260509013145 51 0 0.0 0.0 0.00 0.00 0.00 58 1013.1
20260509012627 52 0 0.0 0.0 0.00 0.00 0.00 57 1013.1
20260509012126 52 0 0.0 1.0 0.00 0.00 0.00 57 1013.2
20260509011626 51 0 0.0 1.0 0.00 0.00 0.00 57 1013.0
20260509011142 51 0 0.0 1.0 0.00 0.00 0.00 57 1012.8
20260509010626 51 0 0.0 2.0 0.00 0.00 0.00 58 1012.9
20260509010126 51 0 0.0 2.0 0.00 0.00 0.00 59 1012.8
20260509005626 52 0 0.0 1.0 0.00 0.00 0.00 58 1012.8
20260509005132 52 0 0.0 1.0 0.00 0.00 0.00 57 1012.7
20260509004626 52 0 0.0 2.0 0.00 0.00 0.00 57 1012.7
20260509004126 52 0 0.0 2.0 0.00 0.00 0.00 56 1012.6
20260509003626 52 0 0.0 1.0 0.00 0.00 0.00 56 1012.8
20260509003126 53 0 0.0 1.0 0.00 0.00 0.00 56 1012.6
20260509002626 53 0 0.0 1.0 0.00 0.00 0.00 55 1012.7
20260509002126 53 0 0.0 1.0 0.00 0.00 0.00 54 1012.7
20260509001636 53 0 0.0 1.0 0.00 0.00 0.00 53 1012.7
20260509001139 53 0 0.0 1.0 0.00 0.00 0.00 53 1012.5
20260509000626 53 0 0.0 1.0 0.00 0.00 0.00 54 1012.5
20260509000138 53 0 0.0 1.0 0.00 0.00 0.00 54 1012.6
20260508235638 53 0 0.0 0.0 0.00 0.00 0.00 54 1012.5
20260508235126 54 0 0.0 0.0 0.00 0.00 0.00 53 1012.5
20260508234628 54 0 0.0 1.0 0.00 0.00 0.00 53 1012.5
20260508234126 54 0 0.0 1.0 0.00 0.00 0.00 53 1012.5
20260508233225 54 0 0.0 1.0 0.00 0.00 0.00 53 1012.5
20260508232725 54 0 0.0 1.0 0.00 0.00 0.00 53 1012.6
20260508232225 54 0 0.0 1.0 0.00 0.00 0.00 52 1012.8
20260508231725 54 0 0.0 1.0 0.00 0.00 0.00 53 1012.7
20260508231226 54 0 0.0 2.0 0.00 0.00 0.00 53 1012.5
20260508230725 55 0 0.0 2.0 0.00 0.00 0.00 53 1012.5
20260508230225 55 0 0.0 1.0 0.00 0.00 0.00 52 1012.5
20260508225725 55 0 0.0 1.0 0.00 0.00 0.00 50 1012.5
20260508225226 55 0 0.0 3.0 0.00 0.00 0.00 50 1012.5
20260508224727 56 0 0.0 3.0 0.00 0.00 0.00 49 1012.5
20260508224225 56 0 0.0 2.0 0.00 0.00 0.00 49 1012.4
20260508223726 56 0 0.0 1.0 0.00 0.00 0.00 48 1012.4
20260508223231 56 0 0.0 1.0 0.00 0.00 0.00 49 1012.3
20260508222725 56 0 0.0 2.0 0.00 0.00 0.00 49 1012.4
20260508222234 57 0 0.0 2.0 0.00 0.00 0.00 47 1012.2
20260508221725 57 0 0.0 1.0 0.00 0.00 0.00 47 1012.1
20260508221225 57 0 0.0 1.0 0.00 0.00 0.00 46 1012.0
20260508220725 57 0 0.0 1.0 0.00 0.00 0.00 46 1012.0
20260508220228 58 0 0.0 1.0 0.00 0.00 0.00 46 1012.0
20260508215648 58 0 0.0 1.0 0.00 0.00 0.00 46 1012.1
20260508215206 58 0 0.0 1.0 0.00 0.00 0.00 46 1011.9
20260508214649 59 0 0.0 1.0 0.00 0.00 0.00 46 1012.1
20260508214149 59 0 0.0 1.0 0.00 0.00 0.00 45 1012.1
20260508213649 59 0 0.0 1.0 0.00 0.00 0.00 44 1011.9
20260508213149 59 0 0.0 1.0 0.00 0.00 0.00 44 1011.9
20260508212649 60 0 0.0 1.0 0.00 0.00 0.00 44 1012.2
20260508212149 60 0 0.0 2.0 0.00 0.00 0.00 44 1012.2
20260508211649 60 0 0.0 2.0 0.00 0.00 0.00 43 1012.3
20260508211149 61 0 0.0 1.0 0.00 0.00 0.00 46 1012.2
20260508210648 61 0 0.0 1.0 0.00 0.00 0.00 42 1012.3
20260508205920 61 0 0.0 2.0 0.00 0.00 0.00 43 1012.4
20260508205423 61 0 0.0 2.0 0.00 0.00 0.00 43 1012.6
20260508204916 62 0 0.0 2.0 0.00 0.00 0.00 41 1012.6
20260508204431 62 0 0.0 2.0 0.00 0.00 0.00 43 1012.9
20260508203644 63 0 0.0 1.0 0.00 0.00 0.00 42 1012.9
20260508203144 63 0 0.0 5.0 0.00 0.00 0.00 43 1013.1
20260508202644 63 0 0.0 5.0 0.00 0.00 0.00 47 1013.0
20260508202144 62 0 0.0 4.0 0.00 0.00 0.00 40 1013.0
20260508201644 63 0 0.0 3.0 0.00 0.00 0.00 41 1013.1
20260508201144 63 0 0.0 3.0 0.00 0.00 0.00 42 1013.0
20260508200643 63 0 0.0 5.0 0.00 0.00 0.00 40 1013.1
20260508200144 64 0 0.0 5.0 0.00 0.00 0.00 39 1013.0
20260508195644 64 0 0.0 3.0 0.00 0.00 0.00 39 1013.2
20260508195144 64 0 0.0 3.0 0.00 0.00 0.00 42 1013.3
20260508194658 64 0 0.0 3.0 0.00 0.00 0.00 43 1013.5
20260508194144 63 284 1.0 3.0 0.00 0.00 0.00 40 1013.6
20260508193644 63 0 0.0 4.0 0.00 0.00 0.00 41 1013.7
20260508193144 63 0 0.0 4.0 0.00 0.00 0.00 40 1013.7
20260508192643 63 0 0.0 2.0 0.00 0.00 0.00 43 1013.8
20260508192143 63 0 0.0 2.0 0.00 0.00 0.00 44 1013.8
20260508191644 64 0 0.0 2.0 0.00 0.00 0.00 40 1013.8
20260508191143 64 76 1.0 2.0 0.00 0.00 0.00 39 1013.7
20260508190643 64 0 0.0 3.0 0.00 0.00 0.00 45 1013.7
20260508190143 63 0 0.0 3.0 0.00 0.00 0.00 45 1013.8
20260508185541 63 0 0.0 1.0 0.00 0.00 0.00 42 1013.9
20260508185041 63 0 0.0 1.0 0.00 0.00 0.00 46 1014.0
20260508184543 64 0 0.0 3.0 0.00 0.00 0.00 43 1014.0
20260508184051 63 0 0.0 4.0 0.00 0.00 0.00 46 1014.1
20260508183542 62 302 1.0 4.0 0.00 0.00 0.00 47 1014.0
20260508183041 63 0 0.0 2.0 0.00 0.00 0.00 49 1014.0
20260508182541 63 0 0.0 3.0 0.00 0.00 0.00 47 1014.3
20260508182043 63 0 0.0 5.0 0.00 0.00 0.00 48 1014.3
20260508181546 63 0 0.0 5.0 0.00 0.00 0.00 45 1014.3
20260508181041 64 0 0.0 4.0 0.00 0.00 0.00 37 1014.6
20260508180543 64 0 0.0 4.0 0.00 0.00 0.00 44 1014.6
20260508180043 64 269 1.0 7.0 0.00 0.00 0.00 41 1014.7
20260508175541 64 279 1.0 7.0 0.00 0.00 0.00 41 1014.7
20260508175041 64 0 0.0 5.0 0.00 0.00 0.00 41 1014.7
20260508174541 64 0 0.0 5.0 0.00 0.00 0.00 44 1014.8
20260508174041 64 257 1.0 4.0 0.00 0.01 0.00 43 1014.9
20260508173541 64 0 0.0 4.0 0.00 0.01 0.00 51 1015.0
20260508173043 63 0 0.0 3.0 0.00 0.01 0.00 48 1015.0
20260508172542 63 0 0.0 5.0 0.00 0.01 0.00 45 1015.2
20260508172041 63 254 1.0 5.0 0.00 0.02 0.00 47 1015.3
20260508171541 63 0 0.0 3.0 0.00 0.02 0.00 50 1015.2
20260508171041 63 0 0.0 4.0 0.00 0.02 0.00 49 1015.3
20260508170541 63 0 0.0 4.0 0.00 0.02 0.00 46 1015.4
20260508170041 63 231 1.0 3.0 0.00 0.02 0.00 52 1015.3
20260508165542 62 0 0.0 3.0 0.00 0.02 0.00 56 1015.6
20260508165043 62 0 0.0 3.0 0.00 0.02 0.00 49 1015.6
20260508164541 63 0 0.0 3.0 0.00 0.02 0.00 47 1015.7
20260508164041 63 0 0.0 3.0 0.00 0.02 0.00 51 1015.7
20260508163541 63 0 0.0 4.0 0.00 0.02 0.00 51 1015.8
20260508163041 63 228 1.0 4.0 0.00 0.02 0.00 45 1015.8